sat.trackr.live / text

‹ back to catalog

STARLINK-3744

NORAD 52304 · 2022-041AV

PAYLOAD ACTIVE UNKNOWN

§ Identity

Operator
Country
US
Launch date
2022-04-21
Launch site
AFETR
Launch vehicle
Mass (kg)
RCS (m²)

Purposes: comms

External: N2YO · Heavens-Above · Gunter

§ Orbital elements

Epoch: 2026-09-19T16:20:29.869728Z

Period
93.85 min
Inclination
53.1604°
Eccentricity
0.0001002
Mean motion
15.34381001 rev/d
Perigee alt
462.1 km
Apogee alt
463.4 km
Semi-major
6,840.9 km
B*
-1.8333e-5
RAAN
285.8936°
Arg perigee
85.0318°
Mean anomaly
275.0799°
Rev number
24,409

§ Raw data

STARLINK-37441 52304U 22041AV  26262.68090127 -.00000995  00000+0 -18333-4 0  99902 52304  53.1604 285.8936 0001002  85.0318 275.0799 15.34381001244098

JSON: /api/v1/satellites/52304 · /tle

For live sub-satellite position, see the globe view (requires WebGL).

§ Visibility from observer

Set your observer location to see the next 7 days of passes ≥ 10°. The values pass through the URL so the page stays shareable.

No JS? Fill the form by hand. The geolocation button needs JavaScript.